2020�N�x�@��C������Ԃɂ�鑪�茋��,,,,,,,,,,,,,,,
,,,,,,,,,,,,,,,
�P�@����n�_,,,,,,,,,,,,,,,
�ɓ�s�l�c�i�ɓ�s�l�c��4����203-2),,,,,,,,,,,,,,,
,,,,,,,,,,,,,,,
�Q�@���Ԓl�i�m��l�j��2020�N5��12���`2020�N6��3��,,,,,,,,,,,,,,,
,,,,,,,,,,,,,,,
,�N,��,��,��,SO2,SPM,Ox,CO,NO,NO2,PM2.5,���x,���x,����,����
,,,,,ppm,mg/m3,ppm,ppm,ppm,ppm,��g/m3,��,%,�ő�,m/s
H03,2020,5,12,1,***,0.025,0.019,***,***,***,18,18,59.9,***,***
H03,2020,5,12,2,0.002,0.03,0.006,0.4,0.014,0.047,22,18,60.4,***,***
H03,2020,5,12,3,0.002,0.024,0.019,0.4,0.005,0.023,19,17.5,58.8,***,***
H03,2020,5,12,4,0.001,0.02,0.012,0.4,0.006,0.02,16,16.5,65.5,***,***
H03,2020,5,12,5,0.001,0.018,0.013,0.4,0.004,0.015,13,15.8,60.8,***,***
H03,2020,5,12,6,0.001,0.018,0.018,0.4,0.017,0.02,10,17.2,49.5,***,***
H03,2020,5,12,7,0.004,0.024,0.014,0.4,0.024,0.026,18,18.2,55.5,***,***
H03,2020,5,12,8,0.005,0.031,0.013,0.4,0.035,0.031,22,20.4,50.6,***,***
H03,2020,5,12,9,0.003,0.025,0.025,0.4,0.015,0.028,18,23.7,38.9,***,***
H03,2020,5,12,10,0.003,0.026,0.034,0.4,0.007,0.02,24,21.6,48.2,***,***
H03,2020,5,12,11,0.001,0.028,0.05,0.4,0.002,0.009,23,23.6,49.1,***,***
H03,2020,5,12,12,0.002,0.026,0.057,0.4,0.001,0.009,17,23.6,49.9,***,***
H03,2020,5,12,13,0.002,0.025,0.046,0.4,0.004,0.017,17,23.6,53.7,***,***
H03,2020,5,12,14,0.001,0.022,0.055,0.4,0.003,0.014,14,24,47.6,***,***
H03,2020,5,12,15,0.001,0.02,0.071,0.4,0.001,0.006,13,24.3,47.7,***,***
H03,2020,5,12,16,0.001,0.019,0.07,0.4,0,0.004,17,23.3,67.7,***,***
H03,2020,5,12,17,0.001,0.021,0.062,0.3,0,0.003,13,22.7,72.5,***,***
H03,2020,5,12,18,0.001,0.019,0.053,0.3,0.001,0.004,12,22.2,77.6,***,***
H03,2020,5,12,19,0.001,0.021,0.046,0.3,0.001,0.005,14,21.6,78.5,***,***
H03,2020,5,12,20,0.001,0.024,0.041,0.3,0.001,0.008,16,21.2,81.4,***,***
H03,2020,5,12,21,0.001,0.026,0.039,0.3,0.002,0.006,17,20.7,83.6,***,***
H03,2020,5,12,22,0.001,0.022,0.027,0.3,0.003,0.015,16,20.9,83.7,***,***
H03,2020,5,12,23,0.001,0.026,0.025,0.3,0.001,0.009,16,19.1,89.7,***,***
H03,2020,5,12,24,0.001,0.027,0.029,0.3,0,0.004,16,19.1,94,***,***
H03,2020,5,13,1,0.001,0.026,0.029,0.3,0.001,0.005,17,18.6,94.8,***,***
H03,2020,5,13,2,0.005,0.024,0.036,0.3,0.004,0.012,14,20.1,59.1,***,***
H03,2020,5,13,3,0.019,0.023,0.053,0.3,0.001,0.011,56,18.6,62.9,***,***
H03,2020,5,13,4,0.002,0.024,0.032,0.3,0.007,0.027,23,18.6,66.3,***,***
H03,2020,5,13,5,0.007,0.023,0.045,0.4,0.002,0.016,18,19.5,56.8,***,***
H03,2020,5,13,6,0.004,0.023,0.045,0.4,0.003,0.014,17,20.4,56.9,***,***
H03,2020,5,13,7,0.002,0.029,0.019,0.4,0.019,0.031,23,20.7,61.9,***,***
H03,2020,5,13,8,0.003,0.031,0.024,0.4,0.016,0.031,22,23,52.2,***,***
H03,2020,5,13,9,0.002,0.024,0.047,0.5,0.011,0.02,23,23.9,41.3,***,***
H03,2020,5,13,10,0.001,0.029,0.055,0.5,0.008,0.019,22,24.7,38.5,***,***
H03,2020,5,13,11,0.001,0.027,0.058,0.4,0.008,0.02,21,25.8,33.4,***,***
H03,2020,5,13,12,0.001,0.029,0.061,0.4,0.007,0.012,21,25.7,32.9,***,***
H03,2020,5,13,13,0,0.021,0.057,0.4,0.004,0.012,16,25.8,25.1,***,***
H03,2020,5,13,14,0.001,0.022,0.052,0.4,0.006,0.011,14,25.4,27.7,***,***
H03,2020,5,13,15,0.001,0.022,0.05,0.4,0.009,0.011,13,24.4,24,***,***
H03,2020,5,13,16,0,0.019,0.051,0.3,0.005,0.009,13,23.3,27.9,***,***
H03,2020,5,13,17,0.001,0.014,0.05,0.3,0.005,0.01,8,22.1,27.3,***,***
H03,2020,5,13,18,0.001,0.009,0.047,0.3,0.003,0.009,10,21.1,29.9,***,***
H03,2020,5,13,19,0.001,0.006,0.046,0.3,0.002,0.007,7,19.8,28.1,***,***
H03,2020,5,13,20,0.001,0.004,0.046,0.3,0.001,0.007,7,18.6,30,***,***
H03,2020,5,13,21,0,0.006,0.045,0.3,0.001,0.006,4,18,33.6,***,***
H03,2020,5,13,22,0.001,0.006,0.042,0.3,0.002,0.008,5,17.7,34,***,***
H03,2020,5,13,23,0.001,0.006,0.039,0.3,0.001,0.01,6,17.3,34.6,***,***
H03,2020,5,13,24,0.001,0.006,0.035,0.3,0.001,0.012,6,16.4,37.9,***,***
H03,2020,5,14,1,0.001,0.007,0.034,0.3,0.002,0.013,7,16.1,39.6,***,***
H03,2020,5,14,2,0.001,0.007,0.035,0.3,0.002,0.012,5,15.1,45.6,***,***
H03,2020,5,14,3,0.001,0.007,0.032,0.3,0.002,0.013,6,14.5,50.2,***,***
H03,2020,5,14,4,0.001,0.007,0.023,0.3,0.006,0.02,9,14.6,53.4,***,***
H03,2020,5,14,5,0.001,0.011,0.018,0.3,0.007,0.025,9,14.4,52.4,***,***
H03,2020,5,14,6,0.002,0.009,0.013,0.3,0.017,0.031,8,15.3,43.1,***,***
H03,2020,5,14,7,0.005,0.016,0.014,0.3,0.025,0.032,14,17.4,37.8,***,***
H03,2020,5,14,8,0.009,0.023,0.016,0.4,0.031,0.036,17,20.4,31.8,***,***
H03,2020,5,14,9,0.007,0.021,0.024,0.6,0.023,0.032,15,22.4,23.7,***,***
H03,2020,5,14,10,0.008,0.02,0.031,0.7,0.023,0.036,18,23.6,23,***,***
H03,2020,5,14,11,0.005,0.023,0.046,0.7,0.014,0.029,18,26,22.7,***,***
H03,2020,5,14,12,0.001,0.019,0.058,0.6,0.007,0.018,15,24.8,25.1,***,***
H03,2020,5,14,13,0.004,0.016,0.071,0.6,0.003,0.011,12,25.5,24.7,***,***
H03,2020,5,14,14,0.015,0.017,0.074,0.5,0.003,0.015,16,26.1,24.7,***,***
H03,2020,5,14,15,0.008,0.018,0.07,0.5,0.002,0.015,18,26.6,24.6,***,***
H03,2020,5,14,16,0.011,0.017,0.066,0.4,0.002,0.012,15,27.2,22.6,***,***
H03,2020,5,14,17,0.017,0.018,0.066,0.4,0.001,0.01,16,26.6,22.9,***,***
H03,2020,5,14,18,0.009,0.025,0.053,0.4,0.002,0.018,22,26,27.5,***,***
H03,2020,5,14,19,0.005,0.018,0.054,0.4,0,0.012,15,21.6,56.8,***,***
H03,2020,5,14,20,0.001,0.015,0.049,0.4,0,0.012,11,20.3,62.6,***,***
H03,2020,5,14,21,0.001,0.015,0.048,0.3,0,0.01,11,19.5,66.3,***,***
H03,2020,5,14,22,0.001,0.013,0.049,0.3,0.001,0.01,11,19.1,64.9,***,***
H03,2020,5,14,23,0.001,0.015,0.048,0.3,0.001,0.009,10,19.2,62.9,***,***
H03,2020,5,14,24,0.001,0.016,0.044,0.3,0.001,0.011,11,18.8,72.5,***,***
H03,2020,5,15,1,0.001,0.015,0.047,0.3,0.001,0.01,11,18.5,76.4,***,***
H03,2020,5,15,2,0.001,0.016,0.05,0.3,0.002,0.01,10,18.3,75.6,***,***
H03,2020,5,15,3,0.001,0.014,0.05,0.3,0.002,0.01,8,17.6,74.6,***,***
H03,2020,5,15,4,0.001,0.014,0.041,0.3,0.004,0.012,10,16.8,75.5,***,***
H03,2020,5,15,5,0.001,0.016,0.026,0.3,0.011,0.022,12,17.1,70.6,***,***
H03,2020,5,15,6,0.001,0.018,0.015,0.3,0.022,0.028,15,17.7,63,***,***
H03,2020,5,15,7,0.001,0.02,0.024,0.4,0.026,0.031,17,20,57.6,***,***
H03,2020,5,15,8,0.001,0.018,0.041,0.4,0.008,0.018,12,21.5,59.9,***,***
H03,2020,5,15,9,0.001,0.012,0.054,0.3,0.003,0.009,11,21.5,57.3,***,***
H03,2020,5,15,10,0.001,0.01,0.06,0.3,0.001,0.005,8,22.8,47.9,***,***
H03,2020,5,15,11,0.001,0.012,0.065,0.3,0.001,0.004,12,23,49.4,***,***
H03,2020,5,15,12,0.001,0.015,0.067,0.3,0,0.004,9,22.8,48.8,***,***
H03,2020,5,15,13,0.001,0.014,0.067,0.3,0.001,0.003,13,23.4,53.2,***,***
H03,2020,5,15,14,0.001,0.017,0.06,0.3,0,0.003,12,23,60,***,***
H03,2020,5,15,15,0.001,0.018,0.054,0.3,0,0.003,12,21.8,63.7,***,***
H03,2020,5,15,16,0.001,0.017,0.055,0.3,0,0.003,11,21.8,62.9,***,***
H03,2020,5,15,17,0,0.016,0.053,0.3,0.002,0.003,9,21.6,63.6,***,***
H03,2020,5,15,18,0.001,0.016,0.051,0.3,0.001,0.005,11,21,68.2,***,***
H03,2020,5,15,19,0.001,0.014,0.049,0.3,0.001,0.006,8,20.7,69.9,***,***
H03,2020,5,15,20,0.001,0.017,0.047,0.3,0.001,0.005,10,20.4,69.9,***,***
H03,2020,5,15,21,0,0.017,0.048,0.3,0,0.005,12,20.1,73.6,***,***
H03,2020,5,15,22,0,0.018,0.046,0.3,0.001,0.007,8,20.1,70.9,***,***
H03,2020,5,15,23,0.001,0.016,0.047,0.3,0.001,0.005,10,20,71.7,***,***
H03,2020,5,15,24,0.001,0.016,0.045,0.3,0.002,0.007,12,19.4,77.6,***,***
H03,2020,5,16,1,0.001,0.016,0.044,0.3,0.002,0.004,12,19.1,81,***,***
H03,2020,5,16,2,0.001,0.017,0.042,0.3,0.003,0.006,10,17.9,91.3,***,***
H03,2020,5,16,3,0,0.015,0.04,0.3,0.001,0.007,12,17.9,92.1,***,***
H03,2020,5,16,4,0,0.013,0.042,0.3,0.001,0.004,10,17.1,94,***,***
H03,2020,5,16,5,0,0.006,0.055,0.3,0.001,0.004,4,15.9,85.7,***,***
H03,2020,5,16,6,0,0.006,0.053,0.3,0.002,0.006,5,15.3,93,***,***
H03,2020,5,16,7,0.001,0.008,0.04,0.3,0.005,0.019,7,15.5,94.9,***,***
H03,2020,5,16,8,0.002,0.011,0.04,0.3,0.007,0.021,9,16.2,94.6,***,***
H03,2020,5,16,9,0.001,0.005,0.049,0.3,0.002,0.01,5,15.9,93.7,***,***
H03,2020,5,16,10,0.001,0.004,0.048,0.3,0.006,0.01,4,16,94.3,***,***
H03,2020,5,16,11,0,0.003,0.047,0.3,0.004,0.012,4,16.4,93.4,***,***
H03,2020,5,16,12,0,0.002,0.044,0.3,0.006,0.011,3,16.2,93.2,***,***
H03,2020,5,16,13,0,0.004,0.048,0.3,0.002,0.009,3,16.3,92.9,***,***
H03,2020,5,16,14,0,0.004,0.049,0.3,0.005,0.008,3,16.8,91.8,***,***
H03,2020,5,16,15,0,0.002,0.049,0.3,0.004,0.006,1,16.8,91.6,***,***
H03,2020,5,16,16,0,0.003,0.046,0.3,0.006,0.005,2,17.1,92.6,***,***
H03,2020,5,16,17,0,0.003,0.041,0.3,0.003,0.008,3,17.1,94.1,***,***
H03,2020,5,16,18,0.001,0.002,0.041,0.3,0.001,0.007,1,17.4,94,***,***
H03,2020,5,16,19,0,0.005,0.037,0.3,0.001,0.009,4,17.4,94.4,***,***
H03,2020,5,16,20,0.001,0.005,0.031,0.3,0.001,0.011,2,17.4,94.7,***,***
H03,2020,5,16,21,0.001,0.008,0.028,0.3,0.001,0.012,6,17.3,95.6,***,***
H03,2020,5,16,22,0.001,0.01,0.028,0.4,0,0.011,9,17.1,95.2,***,***
H03,2020,5,16,23,0.001,0.014,0.029,0.4,0,0.01,11,17,95.5,***,***
H03,2020,5,16,24,0.001,0.009,0.032,0.4,0,0.01,5,17,94.8,***,***
H03,2020,5,17,1,0.001,0.007,0.031,0.4,0,0.011,4,16.8,95.1,***,***
H03,2020,5,17,2,0.001,0.006,0.031,0.4,0,0.011,3,16.5,95.5,***,***
H03,2020,5,17,3,0.001,0.009,0.024,0.4,0,0.016,6,16.5,95.5,***,***
H03,2020,5,17,4,0.001,0.008,0.018,0.4,0.002,0.021,7,16.4,95.1,***,***
H03,2020,5,17,5,0.001,0.01,0.016,0.4,0.002,0.022,5,16.4,95,***,***
H03,2020,5,17,6,0.002,0.011,0.016,0.4,0.004,0.019,7,17.1,86,***,***
H03,2020,5,17,7,0.003,0.014,0.017,0.4,0.006,0.018,8,18.5,85.3,***,***
H03,2020,5,17,8,0.005,0.015,0.024,0.5,0.009,0.017,12,20.9,78.4,***,***
H03,2020,5,17,9,0.005,0.011,0.029,0.5,0.008,0.014,8,23.7,62.4,***,***
H03,2020,5,17,10,0.002,0.006,0.046,0.5,0.002,0.006,4,25.8,56.4,***,***
H03,2020,5,17,11,0.001,0.008,0.05,0.5,0.001,0.004,5,25.9,52.5,***,***
H03,2020,5,17,12,0.001,0.005,0.052,0.5,0.001,0.003,5,26,51.6,***,***
H03,2020,5,17,13,0.001,0.007,0.052,0.4,0.001,0.003,4,25.1,52.3,***,***
H03,2020,5,17,14,0.001,0.007,0.055,0.4,0.001,0.005,3,25.8,51.6,***,***
H03,2020,5,17,15,0.001,0.005,0.053,0.4,0.001,0.005,5,25.4,53.7,***,***
H03,2020,5,17,16,0.001,0.005,0.049,0.4,0.001,0.003,3,25.1,51,***,***
H03,2020,5,17,17,0.001,0.004,0.047,0.4,0.001,0.004,5,24.5,53.7,***,***
H03,2020,5,17,18,0.001,0.004,0.046,0.4,0.001,0.004,6,23.3,57.5,***,***
H03,2020,5,17,19,0.001,0.006,0.044,0.4,0.001,0.005,5,22.2,61.9,***,***
H03,2020,5,17,20,0.001,0.007,0.042,0.4,0,0.006,4,21.6,63.3,***,***
H03,2020,5,17,21,0.001,0.006,0.045,0.4,0,0.004,7,21.5,62.1,***,***
H03,2020,5,17,22,0.001,0.007,0.04,0.4,0.001,0.007,6,20,67.4,***,***
H03,2020,5,17,23,0.004,0.009,0.027,0.4,0.001,0.018,10,19.7,69.5,***,***
H03,2020,5,17,24,0.003,0.009,0.027,0.4,0,0.014,7,19.1,75.1,***,***
H03,2020,5,18,1,0.003,0.01,0.023,0.4,0.003,0.017,8,19.8,69.8,***,***
H03,2020,5,18,2,0.004,0.013,0.016,0.4,0.004,0.026,10,19.2,74.3,***,***
H03,2020,5,18,3,0.002,0.014,0.014,0.4,0.002,0.019,9,18.5,77.6,***,***
H03,2020,5,18,4,0.002,0.015,0.01,0.5,0.009,0.022,11,18.2,77.3,***,***
H03,2020,5,18,5,0.001,0.016,0.006,0.5,0.011,0.021,12,18.2,79.9,***,***
H03,2020,5,18,6,0.001,0.015,0.006,0.5,0.025,0.024,8,19.2,70.8,***,***
H03,2020,5,18,7,0.001,0.016,0.01,0.5,0.018,0.019,12,20.4,72.2,***,***
H03,2020,5,18,8,0.001,0.013,0.024,0.5,0.005,0.011,9,22.8,69.2,***,***
H03,2020,5,18,9,0.002,0.013,0.041,0.4,0.004,0.009,10,23.7,63.6,***,***
H03,2020,5,18,10,0.002,0.018,0.05,0.4,0.003,0.007,10,24.5,62,***,***
H03,2020,5,18,11,0.002,0.021,0.055,0.4,0.001,0.005,14,24.1,65.2,***,***
H03,2020,5,18,12,0.001,0.014,0.057,0.4,0.001,0.004,12,23.8,66,***,***
H03,2020,5,18,13,0.001,0.013,0.057,0.3,0.001,0.003,10,24.5,64,***,***
H03,2020,5,18,14,0.001,0.014,0.057,0.3,0.001,0.003,9,24,66.1,***,***
H03,2020,5,18,15,0.001,0.013,0.054,0.3,0.003,0.009,9,23.3,70.1,***,***
H03,2020,5,18,16,0.001,0.015,0.051,0.3,0.004,0.01,9,22.4,75.4,***,***
H03,2020,5,18,17,0.001,0.014,0.048,0.3,0.002,0.011,10,22.5,75.4,***,***
H03,2020,5,18,18,0.001,0.014,0.045,0.3,0.003,0.011,11,21.8,83.3,***,***
H03,2020,5,18,19,0.001,0.013,0.044,0.3,0.002,0.01,9,20.9,89.5,***,***
H03,2020,5,18,20,0.001,0.015,0.042,0.3,0.001,0.009,10,20.7,92,***,***
H03,2020,5,18,21,0.001,0.013,0.043,0.3,0.001,0.007,11,19.8,93.9,***,***
H03,2020,5,18,22,0.001,0.011,0.046,0.3,0,0.005,7,19.5,94.9,***,***
H03,2020,5,18,23,0.001,0.011,0.043,0.3,0.001,0.009,8,18.9,93.2,***,***
H03,2020,5,18,24,0.001,0.009,0.049,0.3,0.001,0.005,8,19.2,91.2,***,***
H03,2020,5,19,1,***,0.009,0.043,***,***,***,6,18.5,92.2,***,***
H03,2020,5,19,2,0.001,0.008,0.041,0.3,0.003,0.01,6,18.6,93,***,***
H03,2020,5,19,3,0.001,0.007,0.036,0.3,0.001,0.01,5,18.3,95.5,***,***
H03,2020,5,19,4,0.001,0.008,0.029,0.3,0.005,0.018,7,18.8,96.3,***,***
H03,2020,5,19,5,0.001,0.009,0.021,0.3,0.008,0.017,6,18.6,95.7,***,***
H03,2020,5,19,6,0.001,0.007,0.018,0.3,0.017,0.022,6,18.6,95.4,***,***
H03,2020,5,19,7,0.001,0.01,0.016,0.4,0.013,0.024,7,18.9,94.6,***,***
H03,2020,5,19,8,0.001,0.016,0.015,0.4,0.02,0.028,11,19.5,89.5,***,***
H03,2020,5,19,9,0.003,0.019,0.014,0.4,0.027,0.03,13,20.5,86.1,***,***
H03,2020,5,19,10,0.004,0.028,0.019,0.5,0.027,0.023,22,21.9,79.7,***,***
H03,2020,5,19,11,0.004,0.03,0.026,0.6,0.02,0.021,24,22.4,78.4,***,***
H03,2020,5,19,12,0.006,0.014,0.037,0.5,0.012,0.019,11,25.5,67,***,***
H03,2020,5,19,13,0.001,0.011,0.047,0.5,0.008,0.009,4,26.5,62.7,***,***
H03,2020,5,19,14,0.001,0.006,0.048,0.5,0.004,0.01,7,27.6,59.6,***,***
H03,2020,5,19,15,0.001,0.007,0.063,0.4,0,0.005,7,24.5,74.1,***,***
H03,2020,5,19,16,0.001,0.007,0.049,0.4,0.001,0.003,4,23.8,77.1,***,***
H03,2020,5,19,17,0.001,0.006,0.046,0.4,0,0.002,4,22.8,83.8,***,***
H03,2020,5,19,18,0.001,0.013,0.047,0.3,0,0.003,6,21.9,90.3,***,***
H03,2020,5,19,19,0.001,0.014,0.046,0.3,0,0.003,6,22.1,88.2,***,***
H03,2020,5,19,20,0.003,0.01,0.045,0.3,0,0.006,2,22.1,51.5,***,***
H03,2020,5,19,21,0.006,0.019,0.052,0.3,0.001,0.009,15,20.9,63.5,***,***
H03,2020,5,19,22,0.001,0.02,0.045,0.3,0.001,0.012,13,20.7,61.6,***,***
H03,2020,5,19,23,0.003,0.018,0.043,0.3,0.002,0.015,13,20.1,58.4,***,***
H03,2020,5,19,24,0.002,0.018,0.045,0.4,0.001,0.012,14,19.5,58.8,***,***
H03,2020,5,20,1,0.002,0.024,0.037,0.4,0.004,0.021,14,18.8,63.6,***,***
H03,2020,5,20,2,0.002,0.021,0.031,0.4,0.004,0.022,14,17.7,67.5,***,***
H03,2020,5,20,3,0.001,0.023,0.024,0.4,0.003,0.025,17,17.1,72.9,***,***
H03,2020,5,20,4,0.002,0.025,0.023,0.4,0.003,0.027,17,18,69,***,***
H03,2020,5,20,5,0.002,0.024,0.034,0.4,0.004,0.019,15,18.5,60.6,***,***
H03,2020,5,20,6,0.002,0.023,0.029,0.4,0.014,0.023,15,18.5,58.1,***,***
H03,2020,5,20,7,0.003,0.027,0.037,0.4,0.01,0.022,15,20.1,54.8,***,***
H03,2020,5,20,8,0.005,0.023,0.048,0.4,0.004,0.01,17,20.6,52.7,***,***
H03,2020,5,20,9,0.004,0.023,0.049,0.4,0.007,0.013,14,21.1,51.3,***,***
H03,2020,5,20,10,0.002,0.023,0.054,0.4,0.009,0.015,15,21.7,44.4,***,***
H03,2020,5,20,11,0.002,0.02,0.063,0.4,0.006,0.01,16,22.8,44.7,***,***
H03,2020,5,20,12,0.004,0.018,0.061,0.4,0.004,0.011,16,23.6,42.4,***,***
H03,2020,5,20,13,0.005,0.014,0.063,0.4,0.003,0.008,8,23.4,42.2,***,***
H03,2020,5,20,14,0.003,0.012,0.063,0.4,0.007,0.014,11,24,40.5,***,***
H03,2020,5,20,15,0.005,0.014,0.06,0.4,0.006,0.013,13,24.2,42.2,***,***
H03,2020,5,20,16,0.004,0.015,0.063,0.4,0.006,0.011,9,24.3,42.7,***,***
H03,2020,5,20,17,0.009,0.012,0.061,0.4,0.003,0.008,9,23.3,43.3,***,***
H03,2020,5,20,18,0.005,0.01,0.057,0.4,0.001,0.009,8,22.7,45.8,***,***
H03,2020,5,20,19,0.004,0.014,0.05,0.4,0.002,0.01,11,21.9,52.1,***,***
H03,2020,5,20,20,0.005,0.014,0.03,0.4,0.003,0.017,9,20.9,54.3,***,***
H03,2020,5,20,21,0.002,0.01,0.029,0.4,0.002,0.013,7,20.3,54.4,***,***
H03,2020,5,20,22,0.001,0.005,0.027,0.4,0.002,0.013,5,19.7,56.4,***,***
H03,2020,5,20,23,0.006,0.005,0.022,0.4,0.001,0.013,6,18.9,60.7,***,***
H03,2020,5,20,24,0.005,0.004,0.025,0.4,0.001,0.01,4,18.5,61.1,***,***
H03,2020,5,21,1,0.004,0.002,0.022,0.5,0.003,0.014,3,18,59.9,***,***
H03,2020,5,21,2,0.002,0.003,0.025,0.4,0.002,0.013,2,17.7,60.1,***,***
H03,2020,5,21,3,0.001,0.004,0.025,0.4,0.002,0.013,2,17.9,59.8,***,***
H03,2020,5,21,4,0.001,0.004,0.024,0.4,0.004,0.012,4,17.7,61.4,***,***
H03,2020,5,21,5,0.002,0.003,0.016,0.3,0.012,0.019,1,17.7,60.3,***,***
H03,2020,5,21,6,0.002,0.007,0.014,0.3,0.018,0.021,5,18,60,***,***
H03,2020,5,21,7,0.003,0.008,0.017,0.3,0.02,0.018,5,18.2,60.9,***,***
H03,2020,5,21,8,0.003,0.007,0.018,0.3,0.017,0.019,4,18.9,57.5,***,***
H03,2020,5,21,9,0.006,0.007,0.017,0.4,0.021,0.023,4,19.4,53.7,***,***
H03,2020,5,21,10,0.003,0.008,0.023,0.4,0.022,0.017,4,19.1,56.3,***,***
H03,2020,5,21,11,0.002,0.006,0.028,0.4,0.014,0.015,4,19.8,50.5,***,***
H03,2020,5,21,12,0.002,0.009,0.032,0.4,0.013,0.018,7,20.3,50.9,***,***
H03,2020,5,21,13,0.002,0.007,0.043,0.4,0.004,0.009,6,22.4,46.6,***,***
H03,2020,5,21,14,0.003,0.012,0.049,0.3,0.008,0.012,9,22.4,49.4,***,***
H03,2020,5,21,15,0.002,0.014,0.055,0.3,0.003,0.008,12,21.5,55.3,***,***
H03,2020,5,21,16,0.002,0.013,0.056,0.3,0.001,0.005,8,21.1,61.3,***,***
H03,2020,5,21,17,0.001,0.013,0.052,0.3,0,0.004,9,20.4,70.7,***,***
H03,2020,5,21,18,0.001,0.013,0.051,0.3,0,0.004,8,20,69.9,***,***
H03,2020,5,21,19,0.001,0.011,0.049,0.3,0,0.004,9,19.2,75.6,***,***
H03,2020,5,21,20,0.001,0.012,0.042,0.3,0.001,0.006,8,18.9,77.4,***,***
H03,2020,5,21,21,0.001,0.013,0.035,0.3,0.001,0.009,11,18.5,78.1,***,***
H03,2020,5,21,22,0.001,0.012,0.033,0.3,0.002,0.009,9,18.2,79.6,***,***
H03,2020,5,21,23,0.001,0.011,0.036,0.3,0.001,0.008,8,18,76.6,***,***
H03,2020,5,21,24,0.002,0.012,0.035,0.3,0.001,0.007,11,17.7,75.6,***,***
H03,2020,5,22,1,0.001,0.01,0.03,0.3,0.002,0.01,7,17.4,78.4,***,***
H03,2020,5,22,2,0.001,0.012,0.027,0.3,0.003,0.012,9,17.4,78.2,***,***
H03,2020,5,22,3,0.001,0.013,0.02,0.3,0.005,0.013,10,16.7,82.3,***,***
H03,2020,5,22,4,0.001,0.015,0.015,0.3,0.005,0.013,11,16.4,81.3,***,***
H03,2020,5,22,5,0.001,0.013,0.012,0.3,0.012,0.015,11,16.1,83.3,***,***
H03,2020,5,22,6,0.001,0.018,0.008,0.3,0.027,0.022,14,18.3,72.3,***,***
H03,2020,5,22,7,0.002,0.014,0.011,0.3,0.031,0.02,9,19.1,66.5,***,***
H03,2020,5,22,8,0.002,0.018,0.021,0.4,0.015,0.016,10,20.1,64.7,***,***
H03,2020,5,22,9,0.002,0.017,0.031,0.4,0.005,0.014,15,21.4,63.9,***,***
H03,2020,5,22,10,0.002,0.02,0.035,0.4,0.003,0.009,13,21.2,63.6,***,***
H03,2020,5,22,11,0.002,0.016,0.05,0.4,0.001,0.006,14,21.9,57.8,***,***
H03,2020,5,22,12,0.001,0.016,0.059,0.4,0,0.004,13,22.4,59.6,***,***
H03,2020,5,22,13,0.001,0.014,0.06,0.3,0,0.004,9,22.3,62.3,***,***
H03,2020,5,22,14,0.001,0.014,0.06,0.3,0,0.004,8,22.8,64.1,***,***
H03,2020,5,22,15,0.002,0.009,0.056,0.3,0,0.004,8,22.8,63.8,***,***
H03,2020,5,22,16,0.001,0.008,0.052,0.3,0,0.003,6,21.5,66.8,***,***
H03,2020,5,22,17,0.001,0.009,0.051,0.3,0,0.002,6,21.1,73.3,***,***
H03,2020,5,22,18,0.001,0.009,0.048,0.3,0,0.002,5,20.9,72.4,***,***
H03,2020,5,22,19,0.001,0.009,0.051,0.3,0,0.003,6,20.3,75.1,***,***
H03,2020,5,22,20,0.001,0.01,0.05,0.3,0.001,0.005,7,20.4,77.5,***,***
H03,2020,5,22,21,0.001,0.01,0.047,0.3,0.001,0.007,5,20.3,77.6,***,***
H03,2020,5,22,22,0.001,0.01,0.044,0.3,0.002,0.008,5,20,78.5,***,***
H03,2020,5,22,23,0.001,0.01,0.039,0.3,0.001,0.008,6,19.7,79.4,***,***
H03,2020,5,22,24,0.001,0.012,0.036,0.3,0.002,0.008,7,19.1,80.7,***,***
H03,2020,5,23,1,0.001,0.01,0.033,0.3,0.003,0.008,9,19.4,78.8,***,***
H03,2020,5,23,2,0.001,0.012,0.03,0.3,0.005,0.009,9,19.4,78.5,***,***
H03,2020,5,23,3,0.001,0.011,0.025,0.3,0.002,0.012,6,18.9,77.6,***,***
H03,2020,5,23,4,0.001,0.013,0.024,0.3,0.005,0.013,7,19.1,78.7,***,***
H03,2020,5,23,5,0.001,0.012,0.019,0.3,0.011,0.014,9,18.5,85.3,***,***
H03,2020,5,23,6,0.001,0.012,0.018,0.3,0.007,0.014,8,18.8,82.2,***,***
H03,2020,5,23,7,0.001,0.012,0.018,0.3,0.012,0.012,9,19.5,73.7,***,***
H03,2020,5,23,8,0.002,0.013,0.027,0.3,0.01,0.011,10,21.9,62.5,***,***
H03,2020,5,23,9,0.002,0.009,0.04,0.3,0.002,0.007,8,21.6,63.1,***,***
H03,2020,5,23,10,0.002,0.01,0.045,0.3,0.001,0.004,10,22.4,61.6,***,***
H03,2020,5,23,11,0.001,0.009,0.048,0.3,0,0.003,8,22.8,57.8,***,***
H03,2020,5,23,12,0.001,0.008,0.049,0.3,0,0.002,5,23.3,62.3,***,***
H03,2020,5,23,13,0.001,0.007,0.05,0.3,0,0.002,5,23.6,60.4,***,***
H03,2020,5,23,14,0.001,0.008,0.048,0.3,0,0.002,3,24.6,60.9,***,***
H03,2020,5,23,15,0.001,0.007,0.051,0.3,0,0.002,4,24,61.6,***,***
H03,2020,5,23,16,0.001,0.01,0.056,0.3,0,0.002,5,23.9,66,***,***
H03,2020,5,23,17,0.001,0.008,0.056,0.3,0,0.002,7,23,64.8,***,***
H03,2020,5,23,18,0.001,0.014,0.057,0.3,0,0.002,8,22.2,70.5,***,***
H03,2020,5,23,19,0.001,0.011,0.057,0.3,0,0.002,8,21.2,77.9,***,***
H03,2020,5,23,20,0.001,0.01,0.057,0.3,0,0.003,6,20.9,80.2,***,***
H03,2020,5,23,21,0.001,0.01,0.057,0.3,0,0.003,8,20.5,82.5,***,***
H03,2020,5,23,22,0.001,0.011,0.053,0.3,0,0.004,7,20.4,83.1,***,***
H03,2020,5,23,23,0.002,0.013,0.05,0.3,0.001,0.005,8,20.2,83.4,***,***
H03,2020,5,23,24,0.001,0.011,0.049,0.3,0.001,0.004,8,20.3,81.7,***,***
H03,2020,5,24,1,0.001,0.01,0.048,0.3,0.001,0.004,6,20,80.9,***,***
H03,2020,5,24,2,0.001,0.012,0.046,0.3,0.001,0.003,6,19.7,79.5,***,***
H03,2020,5,24,3,0.001,0.009,0.045,0.3,0,0.004,7,19.4,80.3,***,***
H03,2020,5,24,4,0.001,0.009,0.042,0.3,0.001,0.004,4,19.2,78.9,***,***
H03,2020,5,24,5,0.001,0.009,0.039,0.3,0.001,0.005,6,18.9,79.5,***,***
H03,2020,5,24,6,0.001,0.008,0.036,0.3,0.003,0.007,5,20,68.6,***,***
H03,2020,5,24,7,0.001,0.012,0.041,0.3,0.002,0.005,5,22.1,63.6,***,***
H03,2020,5,24,8,0.001,0.007,0.051,0.3,0.001,0.003,4,23.8,56.7,***,***
H03,2020,5,24,9,0.001,0.007,0.052,0.3,0.001,0.004,6,23,62.9,***,***
H03,2020,5,24,10,0.001,0.008,0.054,0.3,0.001,0.002,6,23.9,56.7,***,***
H03,2020,5,24,11,0.001,0.007,0.055,0.3,0.001,0.002,8,24.5,53.7,***,***
H03,2020,5,24,12,0.001,0.007,0.056,0.3,0,0.001,2,24.9,54,***,***
H03,2020,5,24,13,0.001,0.005,0.055,0.3,0.001,0.002,4,25.1,52.8,***,***
H03,2020,5,24,14,0.001,0.004,0.055,0.2,0,0.002,2,25.7,53.1,***,***
H03,2020,5,24,15,0.001,0.007,0.053,0.2,0,0.001,5,25.1,53.4,***,***
H03,2020,5,24,16,0.001,0.006,0.053,0.2,0,0.001,3,24.5,57,***,***
H03,2020,5,24,17,0.001,0.006,0.055,0.2,0,0.001,4,23.9,60.6,***,***
H03,2020,5,24,18,0.001,0.006,0.054,0.2,0,0.002,5,23.1,63.2,***,***
H03,2020,5,24,19,0.001,0.009,0.055,0.2,0,0.002,4,22.1,69.9,***,***
H03,2020,5,24,20,0.001,0.009,0.053,0.2,0,0.002,4,21.3,78.4,***,***
H03,2020,5,24,21,0.001,0.008,0.051,0.2,0,0.003,5,21,80.8,***,***
H03,2020,5,24,22,0.001,0.01,0.049,0.2,0,0.004,4,20.8,81.3,***,***
H03,2020,5,24,23,0.002,0.009,0.045,0.2,0.001,0.006,6,20.4,81.3,***,***
H03,2020,5,24,24,0.001,0.009,0.04,0.3,0.001,0.006,7,20.5,77,***,***
H03,2020,5,25,1,0.001,0.005,0.037,0.3,0.001,0.007,6,20.1,74.3,***,***
H03,2020,5,25,2,0.001,0.004,0.033,0.3,0.002,0.008,4,19.2,76,***,***
H03,2020,5,25,3,0.001,0.007,0.026,0.3,0.001,0.007,5,18.6,79.2,***,***
H03,2020,5,25,4,0.001,0.006,0.022,0.3,0.005,0.007,5,18.5,77,***,***
H03,2020,5,25,5,0.001,0.008,0.02,0.3,0.008,0.012,6,18.3,77.2,***,***
H03,2020,5,25,6,0.001,0.008,0.015,0.3,0.017,0.019,6,19.8,65.7,***,***
H03,2020,5,25,7,0.002,0.011,0.021,0.3,0.022,0.017,8,21.5,62,***,***
H03,2020,5,25,8,0.002,0.01,0.032,0.3,0.011,0.013,5,21.8,64.3,***,***
H03,2020,5,25,9,0.002,0.011,0.033,0.3,0.011,0.018,7,23.9,56,***,***
H03,2020,5,25,10,0.002,0.013,0.04,0.3,0.015,0.017,9,25.2,53.5,***,***
H03,2020,5,25,11,0.002,0.014,0.046,0.3,0.016,0.013,10,24.8,56.2,***,***
H03,2020,5,25,12,0.004,0.014,0.055,0.3,0.004,0.008,9,26.2,55.1,***,***
H03,2020,5,25,13,0.005,0.014,0.056,0.3,0.005,0.012,11,26,55,***,***
H03,2020,5,25,14,0.007,0.017,0.053,0.3,0.005,0.018,13,26.3,52.7,***,***
H03,2020,5,25,15,0.005,0.015,0.057,0.4,0.005,0.014,12,27.2,51.1,***,***
H03,2020,5,25,16,0.004,0.018,0.055,0.4,0.003,0.01,12,26.3,55.5,***,***
H03,2020,5,25,17,0.005,0.022,0.05,0.3,0.002,0.016,17,25.5,59.1,***,***
H03,2020,5,25,18,0.005,0.016,0.052,0.3,0.002,0.014,13,25.1,66.4,***,***
H03,2020,5,25,19,0.001,0.013,0.043,0.3,0,0.011,9,23.6,74.8,***,***
H03,2020,5,25,20,0.001,0.015,0.033,0.3,0.001,0.014,10,22.5,82.2,***,***
H03,2020,5,25,21,0.001,0.013,0.029,0.3,0.001,0.014,6,22.2,82.5,***,***
H03,2020,5,25,22,0.001,0.013,0.03,0.3,0.001,0.011,7,21.9,83.7,***,***
H03,2020,5,25,23,0.001,0.015,0.034,0.3,0,0.007,8,21.5,85.2,***,***
H03,2020,5,25,24,0.001,0.011,0.034,0.3,0,0.006,7,21.1,87.2,***,***